User: anonymous   Login
Location: Basse Occidentale du Courleau
(48.3833°N, 4.8333°W)
Time: 19:28:17
(UTC+00:00)
Language:

SL-8 Rocket - Orbit

View from above orbital plane
View from above orbital plane
View from above satellite
View from above satellite

Ground track
Ground track

The orbit data is extracted from the following two-line orbital elements,

1 21088U 91006B   20263.17230884 +.00000077 +00000-0 +62481-4 0  9990
2 21088 082.9436 215.5312 0021338 226.5238 144.5275 13.77146206489115
Epoch (UTC): 19 September 2020 04:08:07
Eccentricity: 0.0021338
inclination: 82.9436°
perigee height: 958 km
apogee height: 990 km
right ascension of ascending node: 215.5312°
argument of perigee: 226.5238°
revolutions per day: 13.77146206
mean anomaly at epoch: 144.5275°
orbit number at epoch: 48911

The dashed part of the orbit path shows where the satellite is in the earth's shadow,  

DLR